BAW87M EGLL-CYVR

Flight info

Callsign BAW87M
Flight time N/A
Altitude 36000
Route BPK UN601 LESTA UP6 TUPEM DCT NINEB M148 MAGEE DCT DONIB DCT IBROD/M082F360 DCT 6020N DCT 6230N DCT GONEN DCT EMBOK/N0469F360 DCT DUGNO DCT YYQ J539 YYL J540 YVC DCT UOD DCT ANDIE DCT GABIN DCT BOOTH LIONN4
Aircraft B772/H-SDE2E3FGHIJ5LORVWXY/LB1D1

Departure

Time N/A
Airport London Heathrow Airport (EGLL)

Arrival

Time 2026-04-30 22:43
Airport Vancouver International Airport (CYVR)
Time Latitude Longitude Altitude Speed Heading
2026-04-30 22:13 50.46423 -119.95285 38119 ft 463 kts 234°
2026-04-30 22:14 50.42439 -120.03185 38098 ft 464 kts 234°
2026-04-30 22:14 50.38409 -120.11148 37919 ft 469 kts 234°
2026-04-30 22:14 50.36364 -120.15184 37467 ft 473 kts 234°
2026-04-30 22:15 50.34323 -120.19203 37015 ft 470 kts 234°
2026-04-30 22:15 50.32292 -120.23192 36577 ft 468 kts 233°
2026-04-30 22:15 50.30260 -120.27177 36136 ft 468 kts 233°
2026-04-30 22:15 50.28254 -120.31106 35696 ft 467 kts 233°
2026-04-30 22:16 50.26217 -120.35092 35251 ft 472 kts 233°
2026-04-30 22:16 50.24158 -120.39120 34801 ft 473 kts 233°
2026-04-30 22:17 50.18114 -120.50886 33436 ft 453 kts 232°
2026-04-30 22:17 50.16159 -120.54683 32976 ft 447 kts 232°
2026-04-30 22:17 50.12300 -120.62162 31986 ft 438 kts 232°
2026-04-30 22:18 50.10391 -120.65855 31493 ft 434 kts 232°
2026-04-30 22:18 50.06649 -120.73078 30498 ft 427 kts 231°
2026-04-30 22:19 50.02946 -120.80213 29495 ft 420 kts 231°
2026-04-30 22:19 50.01115 -120.83729 28994 ft 416 kts 231°
2026-04-30 22:19 49.97491 -120.90678 27983 ft 410 kts 231°
2026-04-30 22:20 49.95698 -120.94109 27491 ft 408 kts 231°
2026-04-30 22:20 49.92530 -121.01352 26507 ft 403 kts 239°
2026-04-30 22:20 49.91132 -121.05035 26062 ft 400 kts 238°
2026-04-30 22:21 49.89722 -121.08749 25612 ft 396 kts 238°
2026-04-30 22:21 49.88325 -121.12419 25180 ft 393 kts 238°
2026-04-30 22:21 49.86936 -121.16057 24713 ft 391 kts 238°
2026-04-30 22:21 49.85553 -121.19662 24261 ft 388 kts 237°
2026-04-30 22:22 49.84177 -121.23239 23840 ft 385 kts 237°
2026-04-30 22:22 49.82805 -121.26797 23436 ft 381 kts 237°
2026-04-30 22:22 49.81468 -121.30254 22997 ft 378 kts 237°
2026-04-30 22:22 49.80118 -121.33736 22576 ft 375 kts 236°
2026-04-30 22:23 49.78778 -121.37184 22156 ft 373 kts 237°
2026-04-30 22:23 49.77444 -121.40618 21731 ft 370 kts 236°
2026-04-30 22:23 49.76117 -121.44021 21312 ft 368 kts 236°
2026-04-30 22:23 49.74799 -121.47408 20874 ft 365 kts 236°
2026-04-30 22:24 49.73502 -121.50724 20440 ft 362 kts 236°
2026-04-30 22:24 49.72200 -121.54056 20032 ft 360 kts 236°
2026-04-30 22:24 49.70909 -121.57360 19617 ft 357 kts 236°
2026-04-30 22:24 49.69625 -121.60640 19172 ft 355 kts 236°
2026-04-30 22:25 49.68364 -121.63853 18787 ft 352 kts 236°
2026-04-30 22:25 49.67079 -121.67125 18322 ft 351 kts 236°
2026-04-30 22:25 49.65834 -121.70297 17977 ft 347 kts 236°
2026-04-30 22:25 49.64584 -121.73474 17626 ft 343 kts 236°
2026-04-30 22:26 49.62125 -121.79710 16910 ft 335 kts 236°
2026-04-30 22:26 49.60920 -121.82763 16565 ft 331 kts 236°
2026-04-30 22:26 49.59742 -121.85740 16211 ft 328 kts 236°
2026-04-30 22:27 49.58558 -121.88734 15834 ft 324 kts 236°
2026-04-30 22:27 49.57410 -121.91634 15439 ft 308 kts 236°
2026-04-30 22:27 49.55271 -121.97027 14702 ft 282 kts 236°
2026-04-30 22:28 49.53239 -122.02130 14013 ft 278 kts 237°
2026-04-30 22:28 49.52225 -122.04679 13660 ft 278 kts 237°
2026-04-30 22:29 49.49211 -122.12214 12604 ft 271 kts 237°
2026-04-30 22:29 49.48223 -122.14685 12270 ft 271 kts 237°
2026-04-30 22:30 49.44070 -122.25058 10441 ft 295 kts 238°
2026-04-30 22:31 49.40986 -122.32733 10047 ft 270 kts 237°
2026-04-30 22:32 49.37621 -122.39337 9336 ft 259 kts 227°
2026-04-30 22:32 49.35181 -122.43409 8797 ft 258 kts 227°
2026-04-30 22:33 49.31578 -122.49529 7988 ft 257 kts 227°
2026-04-30 22:33 49.29222 -122.53558 7422 ft 254 kts 227°
2026-04-30 22:34 49.25985 -122.59927 6545 ft 253 kts 233°
2026-04-30 22:35 49.23930 -122.64250 5837 ft 244 kts 233°
2026-04-30 22:36 49.20131 -122.72341 4720 ft 227 kts 235°
2026-04-30 22:36 49.19257 -122.74298 4578 ft 219 kts 235°
2026-04-30 22:37 49.16997 -122.79381 4114 ft 217 kts 236°
2026-04-30 22:37 49.16415 -122.81422 3987 ft 206 kts 264°
2026-04-30 22:37 49.16635 -122.85679 3899 ft 198 kts 277°
2026-04-30 22:38 49.17062 -122.89703 3416 ft 189 kts 279°
2026-04-30 22:38 49.17510 -122.93638 2908 ft 188 kts 279°
2026-04-30 22:39 49.17734 -122.95604 2655 ft 187 kts 279°
2026-04-30 22:39 49.18368 -123.01167 1922 ft 154 kts 280°
2026-04-30 22:40 49.18861 -123.05559 1370 ft 137 kts 281°
2026-04-30 22:41 49.19354 -123.09862 841 ft 136 kts 281°
2026-04-30 22:41 49.19666 -123.12596 503 ft 136 kts 281°
2026-04-30 22:42 49.20266 -123.17885 27 ft 79 kts 279°
2026-04-30 22:43 49.20251 -123.18687 28 ft 21 kts 246°
2026-04-30 22:43 49.20169 -123.18845 27 ft 2 kts 133°
2026-04-30 22:44 49.20133 -123.18610 27 ft 13 kts 100°
2026-04-30 22:45 49.20072 -123.18075 27 ft 13 kts 99°
2026-04-30 22:45 49.20033 -123.17852 27 ft 10 kts 149°
2026-04-30 22:46 49.19935 -123.17911 27 ft 7 kts 201°
2026-04-30 22:47 49.19905 -123.17928 27 ft 0 kts 200°